Flag for United Kingdom Weather past 2 weeks in Chester, England, United Kingdom

Now
53 °F

Cool.


Feels Like: 53 °F
Forecast: 42 / 65 °F
Wind: 1 mph from West

Location: Hawarden

Current Time: Sep 21, 2014 at 9:45:18 PM

Latest Report: Sep 21, 2014 at 9:00 PM


Visibility: 11 mi

Pressure: 30.34 "Hg

Humidity: 88%

Dew point: 49 °F

Location of ChesterLocation

Historic Weather in Chester — Graph

°F

Chester temperature yesterday

Maximum temperature yesterday: 65 °F (at 2:00 PM)
Minimum temperature yesterday: 56 °F (at 10:00 PM)
Average temperature yesterday: 60 °F

Past Weeks' High & Low Weather Summary

 TemperatureHumidityPressure
High72 °F (Sep 18, 4:00 PM)98% (Sep 20, 8:00 AM)30.38 "Hg (Sep 20, 8:00 AM)
Low42 °F (Sep 21, 6:00 AM)49% (Sep 16, 4:00 PM)29.83 "Hg (Sep 18, 4:00 PM)
Average58 °F80%30.12 "Hg
* Reported Sep 6 8:00 PM — Sep 21 8:00 PM, Chester, Weather by CustomWeather, © 2014

Note: Actual official high and low records may vary slightly from our data, if they occured in-between our weather recording intervals... More about our weather records

Advertising

Chester weather history for previous 24 hours

 ConditionsComfort  
Time TempWeatherWind HumidityBarometerVisibility
8:00 PM
Sep 21
57 °FCool.3 mph78%30.34 "Hg15 mi
7:00 PM60 °FCool.5 mph71%30.32 "Hg22 mi
6:00 PM62 °FCool.7 mph65%30.32 "Hg18 mi
5:00 PM64 °FMild.6 mph61%30.32 "Hg19 mi
4:00 PM64 °FMild.6 mph57%30.32 "Hg22 mi
3:00 PM63 °FMild.7 mph59%30.32 "Hg31 mi
2:00 PM64 °FMild.6 mph55%30.32 "Hg22 mi
1:00 PM62 °FMild.3 mph59%30.32 "Hg22 mi
12:00 PM61 °FCool.6 mph64%30.32 "Hg19 mi
11:00 AM60 °FCool.3 mph67%30.32 "Hg19 mi
10:00 AM56 °FCool.1 mph87%30.31 "Hg9 mi
9:00 AM50 °FCool.1 mph97%30.30 "Hg6 mi
8:00 AM43 °FDuststorm.No wind98%30.28 "Hg0 mi
7:00 AM42 °FQuite cool.1 mph98%30.27 "Hg2 mi
6:00 AM42 °FDuststorm.1 mph97%30.26 "Hg0 mi
5:00 AM43 °FFog.1 mph97%30.25 "Hg2 mi
4:00 AM45 °FQuite cool.2 mph97%30.25 "Hg1 mi
3:00 AM46 °FCool.2 mph97%30.24 "Hg2 mi
2:00 AM47 °FCool.1 mph96%30.24 "Hg2 mi
1:00 AM49 °FFog.1 mph95%30.22 "Hg2 mi
12:00 AM55 °FSmoke.2 mph88%30.22 "Hg4 mi
11:00 PM
Sep 20
56 °FSmoke.3 mph89%30.20 "Hg6 mi
10:00 PM56 °FSmoke.2 mph89%30.19 "Hg4 mi
9:00 PM58 °FCool.3 mph82%30.17 "Hg10 mi
Weather by CustomWeather, © 2014

See weather overviewHow to use our weather pages